Location: Lugrin
(46.4033°N, 6.6674°E)
Time: 06:15:52
(UTC+00:00)

Tsikada Rocket - Pass Details

Date: 19 January 2021
Orbit: 958 x 1009 km, 82.9° (Epoch: 06 March)

Event Time Altitude Azimuth Distance (km) Brightness Sun altitude
Rises 18:13:05 0° 229° (SW) 3,707 8.0 -19.3°
Reaches altitude 10° 18:16:13 10° 244° (WSW) 2,754 7.4 -19.9°
Maximum altitude 18:21:03 23° 294° (WNW) 1,983 6.3 -20.7°
Drops below altitude 10° 18:25:52 10° 345° (NNW) 2,739 6.4 -21.5°
Sets 18:29:00 0° 360° (N) 3,682 7.0 -22.0°
